QPF
0.00 0.00 0.00 0.00 0.00 0.00 0.00 0.00 0.00 0.00 0.00 0.00 0.00 0.00 0.00 0.00 0.00 0.00 0.01 0.02 0.05 0.11 0.20 0.34 0.55 0.80 1.27 2.00 2.67 2.89 2.60 1.86 1.28 0.84 0.55 0.28 0.14 0.07 0.03 0.02 0.01 0.00 0.00 0.00
0.00 0.00 0.00 0.00 0.00 0.00 0.00 0.00 0.00 0.00 0.00 0.00 0.00 0.00 0.00 0.00 0.00 0.00 0.01 0.02 0.06 0.13 0.25 0.44 0.70 1.08 1.56 1.99 2.29 2.25 1.86 1.25 0.87 0.57 0.31 0.15 0.09 0.04 0.01 0.01 0.01 0.00 0.00 0.00
0.00 0.00 0.00 0.00 0.00 0.00 0.00 0.00 0.00 0.00 0.00 0.00 0.00 0.00 0.01 0.01 0.01 0.01 0.02 0.04 0.10 0.20 0.32 0.48 0.86 1.29 1.36 1.46 1.50 1.24 0.90 0.62 0.50 0.30 0.15 0.09 0.04 0.02 0.01 0.01 0.01 0.00 0.00 0.00
0.00 0.00 0.00 0.00 0.00 0.00 0.00 0.00 0.00 0.00 0.00 0.00 0.00 0.01 0.03 0.04 0.03 0.03 0.04 0.05 0.09 0.16 0.23 0.29 0.51 0.82 0.78 0.71 0.67 0.52 0.40 0.31 0.25 0.18 0.15 0.10 0.06 0.04 0.04 0.03 0.02 0.01 0.00 0.00
0.00 0.01 0.00 0.00 0.00 0.00 0.00 0.00 0.00 0.00 0.00 0.00 0.00 0.01 0.03 0.07 0.07 0.05 0.05 0.05 0.04 0.04 0.05 0.07 0.14 0.21 0.24 0.24 0.31 0.35 0.27 0.24 0.24 0.19 0.15 0.12 0.10 0.08 0.07 0.06 0.04 0.03 0.02 0.01
0.00 0.01 0.00 0.00 0.00 0.00 0.00 0.00 0.00 0.00 0.01 0.02 0.03 0.04 0.08 0.21 0.24 0.13 0.06 0.03 0.01 0.01 0.00 0.01 0.02 0.03 0.06 0.09 0.14 0.18 0.17 0.20 0.24 0.25 0.20 0.16 0.12 0.09 0.08 0.07 0.06 0.06 0.05 0.03
0.02 0.01 0.01 0.00 0.00 0.00 0.00 0.00 0.00 0.00 0.01 0.03 0.03 0.03 0.16 0.38 0.26 0.11 0.03 0.01 0.01 0.00 0.00 0.00 0.01 0.02 0.03 0.05 0.08 0.10 0.10 0.11 0.13 0.16 0.17 0.15 0.13 0.10 0.09 0.08 0.06 0.07 0.07 0.07
0.04 0.02 0.00 0.00 0.01 0.01 0.00 0.00 0.00 0.00 0.00 0.01 0.02 0.08 0.27 0.32 0.16 0.06 0.02 0.00 0.00 0.00 0.00 0.00 0.00 0.01 0.01 0.02 0.03 0.03 0.03 0.04 0.04 0.05 0.06 0.07 0.08 0.10 0.11 0.10 0.09 0.10 0.13 0.14
0.00 0.00 0.00 0.01 0.02 0.02 0.01 0.00 0.00 0.00 0.00 0.01 0.04 0.12 0.16 0.15 0.10 0.05 0.02 0.01 0.00 0.00 0.00 0.00 0.00 0.00 0.00 0.00 0.00 0.00 0.01 0.01 0.01 0.01 0.02 0.02 0.03 0.04 0.05 0.06 0.07 0.09 0.13 0.16
0.00 0.00 0.00 0.01 0.01 0.02 0.02 0.01 0.00 0.00 0.00 0.00 0.03 0.12 0.13 0.10 0.06 0.02 0.01 0.00 0.00 0.00 0.00 0.00 0.00 0.00 0.00 0.00 0.00 0.00 0.00 0.00 0.00 0.00 0.00 0.00 0.00 0.01 0.01 0.01 0.02 0.03 0.05 0.08
0.00 0.00 0.00 0.00 0.01 0.02 0.02 0.01 0.01 0.01 0.01 0.01 0.01 0.06 0.07 0.06 0.03 0.01 0.00 0.00 0.00 0.00 0.00 0.00 0.00 0.00 0.00 0.00 0.00 0.00 0.00 0.00 0.00 0.00 0.00 0.00 0.00 0.00 0.00 0.00 0.00 0.00 0.01 0.02
0.00 0.00 0.00 0.00 0.02 0.02 0.01 0.02 0.02 0.02 0.01 0.01 0.01 0.03 0.02 0.02 0.01 0.01 0.00 0.00 0.00 0.00 0.00 0.00 0.00 0.00 0.00 0.00 0.00 0.00 0.00 0.00 0.00 0.00 0.00 0.00 0.00 0.00 0.00 0.00 0.00 0.00 0.00 0.00
0.00 0.00 0.00 0.01 0.02 0.03 0.02 0.02 0.02 0.02 0.01 0.01 0.02 0.02 0.01 0.01 0.00 0.00 0.00 0.00 0.00 0.00 0.00 0.00 0.00 0.00 0.00 0.00 0.00 0.00 0.00 0.00 0.00 0.00 0.00 0.00 0.00 0.00 0.00 0.00 0.00 0.00 0.00 0.00
0.00 0.00 0.00 0.01 0.01 0.02 0.03 0.03 0.03 0.02 0.01 0.00 0.00 0.01 0.00 0.00 0.00 0.00 0.00 0.00 0.00 0.00 0.00 0.00 0.00 0.00 0.00 0.00 0.00 0.00 0.00 0.00 0.00 0.00 0.00 0.00 0.00 0.00 0.00 0.00 0.00 0.00 0.00 0.00
0.00 0.00 0.00 0.00 0.01 0.01 0.03 0.05 0.03 0.01 0.00 0.00 0.00 0.00 0.00 0.00 0.00 0.00 0.00 0.00 0.00 0.00 0.00 0.00 0.00 0.00 0.00 0.00 0.00 0.00 0.00 0.00 0.00 0.00 0.00 0.00 0.00 0.00 0.00 0.00 0.00 0.00 0.00 0.00
0.00 0.00 0.00 0.00 0.00 0.01 0.03 0.06 0.02 0.00 0.00 0.00 0.00 0.00 0.00 0.00 0.00 0.00 0.00 0.00 0.00 0.00 0.00 0.00 0.00 0.00 0.00 0.00 0.00 0.00 0.00 0.00 0.00 0.00 0.00 0.00 0.00 0.00 0.00 0.00 0.00 0.00 0.00 0.00
0.00 0.00 0.00 0.00 0.00 0.00 0.02 0.03 0.01 0.00 0.00 0.00 0.00 0.00 0.00 0.00 0.00 0.00 0.00 0.00 0.00 0.00 0.00 0.00 0.00 0.00 0.00 0.00 0.00 0.00 0.00 0.00 0.00 0.00 0.00 0.00 0.00 0.00 0.00 0.00 0.00 0.00 0.00 0.01
0.00 0.00 0.00 0.00 0.00 0.01 0.01 0.00 0.00 0.00 0.00 0.00 0.00 0.00 0.00 0.00 0.00 0.00 0.00 0.00 0.00 0.00 0.00 0.00 0.00 0.00 0.00 0.00 0.00 0.00 0.00 0.00 0.00 0.00 0.00 0.00 0.00 0.00 0.00 0.00 0.00 0.01 0.01 0.01
0.00 0.00 0.00 0.00 0.00 0.00 0.00 0.00 0.00 0.00 0.00 0.00 0.00 0.00 0.00 0.00 0.00 0.00 0.00 0.00 0.00 0.00 0.00 0.00 0.00 0.00 0.00 0.00 0.00 0.00 0.00 0.00 0.00 0.00 0.00 0.00 0.00 0.00 0.00 0.00 0.00 0.01 0.01 0.01
0.00 0.00 0.00 0.00 0.00 0.00 0.00 0.00 0.00 0.00 0.00 0.00 0.00 0.00 0.00 0.00 0.00 0.00 0.00 0.00 0.00 0.00 0.00 0.00 0.00 0.00 0.00 0.00 0.00 0.00 0.00 0.00 0.01 0.01 0.01 0.01 0.01 0.01 0.01 0.01 0.00 0.00 0.01 0.01
0.00 0.00 0.00 0.00 0.00 0.00 0.00 0.00 0.00 0.00 0.00 0.00 0.00 0.00 0.00 0.00 0.00 0.00 0.00 0.00 0.00 0.00 0.00 0.00 0.00 0.00 0.00 0.00 0.00 0.01 0.01 0.02 0.02 0.02 0.02 0.02 0.02 0.02 0.01 0.01 0.01 0.01 0.01 0.01
0.00 0.00 0.00 0.00 0.00 0.00 0.00 0.00 0.00 0.00 0.00 0.00 0.00 0.00 0.00 0.00 0.00 0.00 0.00 0.00 0.00 0.00 0.00 0.00 0.00 0.00 0.00 0.00 0.01 0.02 0.03 0.02 0.03 0.03 0.03 0.02 0.02 0.02 0.02 0.02 0.01 0.01 0.01 0.01
0.00 0.00 0.00 0.00 0.00 0.00 0.00 0.00 0.00 0.00 0.00 0.00 0.00 0.00 0.00 0.00 0.00 0.00 0.00 0.00 0.00 0.00 0.00 0.00 0.00 0.00 0.00 0.01 0.02 0.04 0.04 0.04 0.04 0.04 0.03 0.02 0.02 0.02 0.02 0.02 0.02 0.01 0.01 0.01
0.00 0.00 0.00 0.00 0.00 0.00 0.00 0.00 0.00 0.00 0.00 0.00 0.00 0.00 0.00 0.00 0.00 0.00 0.00 0.00 0.00 0.00 0.00 0.00 0.00 0.01 0.01 0.01 0.02 0.03 0.04 0.05 0.06 0.05 0.04 0.03 0.03 0.03 0.03 0.04 0.04 0.03 0.02 0.01
0.00 0.00 0.00 0.00 0.00 0.00 0.00 0.00 0.00 0.00 0.00 0.00 0.00 0.00 0.00 0.00 0.00 0.00 0.00 0.00 0.00 0.00 0.00 0.01 0.01 0.02 0.02 0.02 0.02 0.03 0.04 0.05 0.06 0.05 0.05 0.05 0.05 0.06 0.05 0.05 0.05 0.04 0.03 0.03
0.00 0.00 0.00 0.00 0.00 0.00 0.00 0.00 0.00 0.00 0.00 0.00 0.00 0.00 0.00 0.00 0.00 0.00 0.00 0.00 0.00 0.01 0.02 0.02 0.02 0.02 0.02 0.02 0.03 0.03 0.03 0.05 0.05 0.05 0.05 0.06 0.06 0.06 0.07 0.06 0.06 0.04 0.03 0.02
MSLP
1010.62 1011.28 1011.66 1011.75 1011.61 1011.30 1010.94 1010.61 1010.39 1010.31 1010.38 1010.58 1010.87 1011.20 1011.55 1011.88 1012.18 1012.44 1012.66 1012.82 1012.90 1012.89 1012.74 1012.45 1012.01 1011.44 1010.77 1010.06 1009.37 1008.76 1008.29 1007.98 1007.83 1007.82 1007.92 1008.07 1008.23 1008.37 1008.47 1008.55 1008.61 1008.70 1008.83 1009.04
1011.17 1011.61 1011.76 1011.64 1011.34 1010.97 1010.64 1010.44 1010.44 1010.64 1011.01 1011.49 1012.00 1012.50 1012.94 1013.28 1013.53 1013.71 1013.81 1013.85 1013.81 1013.67 1013.41 1013.01 1012.47 1011.80 1011.04 1010.27 1009.55 1008.96 1008.53 1008.31 1008.26 1008.36 1008.54 1008.74 1008.89 1008.96 1008.95 1008.86 1008.75 1008.66 1008.65 1008.76
1011.55 1011.78 1011.71 1011.42 1011.01 1010.62 1010.37 1010.35 1010.59 1011.07 1011.71 1012.42 1013.12 1013.73 1014.18 1014.48 1014.63 1014.66 1014.61 1014.51 1014.34 1014.12 1013.79 1013.35 1012.78 1012.11 1011.36 1010.62 1009.94 1009.39 1009.04 1008.89 1008.93 1009.10 1009.32 1009.52 1009.64 1009.63 1009.48 1009.23 1008.95 1008.70 1008.55 1008.54
1011.78 1011.80 1011.55 1011.13 1010.68 1010.33 1010.21 1010.39 1010.88 1011.62 1012.50 1013.40 1014.22 1014.85 1015.27 1015.45 1015.44 1015.30 1015.08 1014.82 1014.55 1014.26 1013.92 1013.50 1012.99 1012.39 1011.73 1011.07 1010.47 1010.01 1009.73 1009.64 1009.72 1009.91 1010.13 1010.30 1010.36 1010.25 1009.99 1009.61 1009.18 1008.80 1008.52 1008.41
1011.91 1011.74 1011.35 1010.86 1010.42 1010.16 1010.20 1010.60 1011.32 1012.28 1013.35 1014.38 1015.25 1015.86 1016.17 1016.20 1016.00 1015.66 1015.26 1014.87 1014.51 1014.19 1013.88 1013.53 1013.12 1012.65 1012.12 1011.58 1011.08 1010.70 1010.47 1010.41 1010.49 1010.66 1010.84 1010.96 1010.95 1010.77 1010.42 1009.95 1009.43 1008.95 1008.58 1008.39
1011.99 1011.66 1011.18 1010.66 1010.27 1010.14 1010.36 1010.95 1011.88 1013.01 1014.21 1015.31 1016.17 1016.70 1016.88 1016.73 1016.34 1015.82 1015.26 1014.74 1014.32 1013.99 1013.73 1013.48 1013.20 1012.87 1012.48 1012.07 1011.67 1011.35 1011.15 1011.08 1011.13 1011.25 1011.37 1011.44 1011.37 1011.14 1010.76 1010.25 1009.69 1009.17 1008.75 1008.49
1012.07 1011.63 1011.09 1010.59 1010.28 1010.27 1010.64 1011.41 1012.48 1013.73 1014.99 1016.10 1016.91 1017.35 1017.39 1017.08 1016.51 1015.83 1015.14 1014.54 1014.08 1013.76 1013.55 1013.40 1013.25 1013.05 1012.79 1012.48 1012.16 1011.87 1011.67 1011.57 1011.56 1011.61 1011.68 1011.69 1011.59 1011.36 1010.98 1010.50 1009.96 1009.44 1009.01 1008.70
1012.20 1011.68 1011.13 1010.67 1010.44 1010.54 1011.04 1011.91 1013.06 1014.36 1015.63 1016.70 1017.43 1017.77 1017.69 1017.25 1016.56 1015.77 1015.00 1014.34 1013.86 1013.56 1013.40 1013.33 1013.27 1013.17 1013.00 1012.76 1012.48 1012.21 1011.98 1011.83 1011.75 1011.74 1011.75 1011.73 1011.63 1011.42 1011.10 1010.69 1010.22 1009.75 1009.34 1009.02
1012.36 1011.83 1011.31 1010.90 1010.75 1010.94 1011.50 1012.41 1013.58 1014.85 1016.07 1017.06 1017.72 1017.96 1017.80 1017.28 1016.54 1015.70 1014.90 1014.22 1013.74 1013.45 1013.32 1013.28 1013.27 1013.22 1013.10 1012.89 1012.63 1012.34 1012.07 1011.86 1011.72 1011.65 1011.61 1011.58 1011.51 1011.36 1011.13 1010.81 1010.44 1010.06 1009.69 1009.37
1012.56 1012.07 1011.60 1011.27 1011.19 1011.43 1012.01 1012.90 1014.01 1015.20 1016.32 1017.22 1017.78 1017.96 1017.76 1017.23 1016.48 1015.66 1014.87 1014.21 1013.74 1013.45 1013.32 1013.28 1013.26 1013.21 1013.08 1012.87 1012.58 1012.26 1011.94 1011.68 1011.49 1011.37 1011.31 1011.28 1011.24 1011.17 1011.03 1010.83 1010.57 1010.28 1009.97 1009.66
1012.75 1012.36 1012.00 1011.76 1011.75 1012.01 1012.56 1013.39 1014.39 1015.45 1016.43 1017.21 1017.69 1017.83 1017.63 1017.13 1016.45 1015.68 1014.95 1014.33 1013.86 1013.55 1013.38 1013.30 1013.23 1013.12 1012.95 1012.69 1012.36 1011.99 1011.64 1011.33 1011.09 1010.94 1010.86 1010.84 1010.84 1010.83 1010.79 1010.69 1010.54 1010.34 1010.09 1009.82
1012.92 1012.67 1012.46 1012.34 1012.39 1012.67 1013.18 1013.89 1014.75 1015.65 1016.48 1017.13 1017.54 1017.65 1017.47 1017.04 1016.45 1015.77 1015.11 1014.52 1014.05 1013.71 1013.48 1013.30 1013.14 1012.95 1012.69 1012.37 1011.99 1011.58 1011.18 1010.84 1010.57 1010.39 1010.29 1010.27 1010.29 1010.33 1010.36 1010.35 1010.29 1010.17 1009.99 1009.75
1013.07 1013.01 1012.97 1012.98 1013.12 1013.40 1013.85 1014.45 1015.15 1015.88 1016.54 1017.07 1017.39 1017.48 1017.34 1016.98 1016.48 1015.90 1015.30 1014.75 1014.27 1013.87 1013.54 1013.25 1012.97 1012.66 1012.31 1011.91 1011.48 1011.03 1010.61 1010.24 1009.94 1009.74 1009.62 1009.59 1009.61 1009.67 1009.74 1009.78 1009.78 1009.73 1009.61 1009.43
1013.23 1013.38 1013.51 1013.67 1013.89 1014.19 1014.59 1015.07 1015.61 1016.17 1016.66 1017.06 1017.30 1017.37 1017.24 1016.95 1016.53 1016.02 1015.48 1014.94 1014.42 1013.95 1013.51 1013.09 1012.68 1012.26 1011.81 1011.34 1010.86 1010.39 1009.94 1009.55 1009.23 1009.00 1008.86 1008.80 1008.80 1008.85 1008.93 1009.00 1009.04 1009.04 1008.98 1008.86
1013.45 1013.78 1014.09 1014.39 1014.69 1015.01 1015.36 1015.74 1016.13 1016.52 1016.86 1017.12 1017.27 1017.30 1017.18 1016.92 1016.55 1016.09 1015.57 1015.02 1014.46 1013.90 1013.35 1012.81 1012.28 1011.74 1011.21 1010.68 1010.16 1009.67 1009.21 1008.81 1008.48 1008.22 1008.04 1007.94 1007.90 1007.92 1007.98 1008.05 1008.12 1008.16 1008.15 1008.09
1013.77 1014.25 1014.70 1015.11 1015.48 1015.81 1016.12 1016.40 1016.67 1016.90 1017.09 1017.23 1017.28 1017.25 1017.11 1016.86 1016.50 1016.06 1015.54 1014.96 1014.34 1013.70 1013.04 1012.39 1011.76 1011.13 1010.53 1009.96 1009.42 1008.92 1008.47 1008.06 1007.71 1007.43 1007.21 1007.05 1006.97 1006.94 1006.96 1007.02 1007.09 1007.16 1007.20 1007.20
1014.22 1014.79 1015.33 1015.80 1016.21 1016.54 1016.80 1017.00 1017.15 1017.25 1017.31 1017.32 1017.28 1017.17 1016.99 1016.72 1016.35 1015.90 1015.36 1014.75 1014.07 1013.36 1012.62 1011.88 1011.17 1010.48 1009.84 1009.24 1008.70 1008.20 1007.75 1007.34 1006.98 1006.67 1006.40 1006.20 1006.05 1005.97 1005.96 1005.99 1006.05 1006.14 1006.21 1006.26
1014.79 1015.38 1015.93 1016.42 1016.83 1017.14 1017.35 1017.47 1017.52 1017.51 1017.45 1017.35 1017.21 1017.03 1016.79 1016.48 1016.09 1015.62 1015.05 1014.41 1013.69 1012.92 1012.13 1011.34 1010.57 1009.85 1009.19 1008.58 1008.04 1007.55 1007.10 1006.69 1006.32 1005.98 1005.68 1005.42 1005.22 1005.09 1005.03 1005.03 1005.08 1005.17 1005.27 1005.35
1015.42 1015.97 1016.48 1016.93 1017.29 1017.55 1017.71 1017.76 1017.72 1017.62 1017.46 1017.28 1017.06 1016.80 1016.51 1016.16 1015.74 1015.25 1014.66 1013.99 1013.26 1012.46 1011.65 1010.83 1010.04 1009.31 1008.64 1008.03 1007.49 1007.00 1006.56 1006.14 1005.75 1005.38 1005.04 1004.74 1004.49 1004.31 1004.20 1004.17 1004.20 1004.29 1004.39 1004.50
1016.03 1016.49 1016.91 1017.28 1017.57 1017.76 1017.85 1017.83 1017.73 1017.55 1017.33 1017.08 1016.79 1016.49 1016.16 1015.78 1015.34 1014.83 1014.24 1013.57 1012.83 1012.04 1011.22 1010.41 1009.62 1008.89 1008.21 1007.61 1007.06 1006.57 1006.11 1005.68 1005.27 1004.87 1004.49 1004.14 1003.85 1003.63 1003.48 1003.41 1003.41 1003.48 1003.58 1003.69
1016.52 1016.86 1017.18 1017.45 1017.64 1017.76 1017.78 1017.70 1017.55 1017.33 1017.06 1016.77 1016.45 1016.12 1015.76 1015.37 1014.92 1014.42 1013.84 1013.19 1012.47 1011.70 1010.90 1010.10 1009.32 1008.59 1007.92 1007.30 1006.74 1006.23 1005.74 1005.28 1004.83 1004.40 1003.98 1003.59 1003.26 1002.99 1002.80 1002.69 1002.67 1002.70 1002.79 1002.89
1016.82 1017.04 1017.24 1017.40 1017.51 1017.55 1017.52 1017.40 1017.22 1016.98 1016.70 1016.39 1016.06 1015.72 1015.35 1014.96 1014.53 1014.04 1013.48 1012.86 1012.17 1011.44 1010.67 1009.89 1009.13 1008.40 1007.71 1007.07 1006.48 1005.92 1005.40 1004.90 1004.40 1003.92 1003.46 1003.04 1002.66 1002.35 1002.13 1001.98 1001.92 1001.93 1001.99 1002.08
1016.86 1016.98 1017.08 1017.15 1017.19 1017.18 1017.11 1016.98 1016.80 1016.56 1016.28 1015.98 1015.66 1015.33 1014.97 1014.59 1014.17 1013.70 1013.18 1012.59 1011.94 1011.24 1010.50 1009.74 1008.99 1008.25 1007.53 1006.86 1006.22 1005.62 1005.04 1004.48 1003.93 1003.41 1002.91 1002.44 1002.03 1001.69 1001.42 1001.24 1001.14 1001.12 1001.16 1001.24
1016.64 1016.68 1016.71 1016.73 1016.73 1016.69 1016.62 1016.50 1016.33 1016.12 1015.87 1015.59 1015.29 1014.97 1014.62 1014.26 1013.86 1013.41 1012.91 1012.35 1011.74 1011.07 1010.35 1009.60 1008.84 1008.08 1007.33 1006.61 1005.92 1005.25 1004.61 1003.99 1003.40 1002.83 1002.29 1001.80 1001.36 1000.98 1000.69 1000.48 1000.35 1000.30 1000.32 1000.40
1016.19 1016.19 1016.19 1016.18 1016.17 1016.14 1016.09 1016.00 1015.87 1015.70 1015.49 1015.24 1014.96 1014.66 1014.33 1013.97 1013.58 1013.15 1012.66 1012.12 1011.53 1010.87 1010.16 1009.41 1008.64 1007.85 1007.06 1006.29 1005.53 1004.80 1004.11 1003.44 1002.80 1002.20 1001.64 1001.13 1000.67 1000.28 999.97 999.74 999.59 999.52 999.53 999.60
1015.58 1015.56 1015.55 1015.55 1015.56 1015.57 1015.56 1015.53 1015.45 1015.33 1015.17 1014.95 1014.70 1014.41 1014.09 1013.73 1013.33 1012.90 1012.42 1011.88 1011.28 1010.63 1009.92 1009.16 1008.36 1007.54 1006.71 1005.88 1005.07 1004.29 1003.54 1002.84 1002.18 1001.56 1001.00 1000.48 1000.03 999.65 999.33 999.09 998.93 998.85 998.85 998.93
Thickness
5784 5764 5754 5765 5772 5773 5774 5770 5768 5781 5802 5790 5768 5755 5755 5762 5765 5760 5756 5753 5750 5747 5748 5750 5750 5750 5751 5750 5748 5746 5738 5732 5726 5725 5726 5729 5731 5737 5740 5741 5741 5739 5738 5736
5761 5756 5776 5787 5789 5783 5776 5766 5765 5778 5795 5785 5758 5744 5748 5752 5749 5747 5743 5738 5734 5733 5736 5739 5740 5742 5743 5742 5741 5739 5734 5729 5722 5721 5723 5725 5728 5731 5736 5737 5735 5734 5733 5731
5757 5769 5788 5785 5778 5774 5771 5765 5766 5769 5778 5777 5763 5734 5734 5738 5743 5742 5739 5733 5729 5727 5727 5730 5733 5735 5736 5733 5729 5726 5724 5721 5718 5720 5721 5722 5723 5723 5724 5725 5726 5728 5728 5727
5762 5777 5779 5774 5772 5774 5758 5777 5778 5772 5756 5741 5750 5716 5718 5724 5727 5728 5725 5723 5720 5718 5720 5723 5726 5724 5723 5721 5720 5716 5713 5710 5710 5712 5712 5712 5710 5710 5712 5715 5718 5721 5722 5722
5755 5769 5768 5766 5775 5780 5772 5781 5773 5765 5750 5735 5732 5713 5707 5716 5709 5710 5713 5714 5712 5711 5712 5713 5713 5712 5710 5709 5708 5705 5702 5700 5698 5699 5700 5701 5701 5702 5704 5706 5708 5711 5714 5715
5768 5781 5778 5778 5787 5788 5783 5769 5755 5741 5728 5712 5718 5706 5696 5699 5698 5700 5706 5707 5706 5704 5704 5703 5702 5700 5697 5696 5694 5692 5690 5689 5688 5687 5687 5687 5687 5689 5691 5693 5695 5698 5701 5704
5755 5770 5782 5788 5776 5779 5771 5736 5709 5706 5695 5697 5712 5700 5693 5702 5704 5703 5702 5701 5700 5699 5696 5694 5691 5688 5685 5682 5680 5678 5675 5674 5675 5675 5675 5674 5673 5674 5675 5677 5680 5683 5686 5690
5732 5738 5769 5782 5773 5761 5763 5738 5706 5694 5690 5692 5701 5691 5692 5702 5702 5702 5700 5697 5693 5690 5687 5685 5681 5678 5675 5673 5670 5667 5664 5661 5661 5660 5660 5660 5660 5661 5661 5663 5665 5667 5670 5674
5729 5735 5770 5781 5784 5774 5755 5743 5739 5711 5706 5688 5686 5685 5688 5693 5693 5693 5690 5686 5682 5679 5677 5674 5670 5666 5662 5659 5656 5654 5651 5649 5648 5647 5646 5645 5645 5645 5646 5647 5649 5651 5654 5659
5749 5736 5757 5773 5776 5771 5763 5750 5726 5708 5690 5678 5682 5680 5676 5681 5682 5682 5678 5674 5671 5670 5667 5664 5659 5655 5650 5644 5639 5636 5634 5632 5632 5632 5630 5630 5628 5628 5628 5630 5632 5634 5638 5642
5756 5735 5739 5751 5748 5747 5751 5743 5725 5704 5695 5678 5668 5674 5691 5684 5681 5675 5670 5666 5663 5660 5657 5653 5648 5644 5638 5631 5624 5618 5613 5610 5609 5609 5609 5609 5609 5609 5610 5610 5613 5616 5620 5624
5754 5729 5719 5734 5752 5760 5749 5738 5722 5698 5690 5683 5667 5667 5691 5682 5675 5669 5663 5659 5655 5651 5646 5640 5634 5628 5621 5614 5607 5601 5595 5590 5587 5586 5585 5584 5585 5585 5586 5588 5592 5596 5599 5604
5751 5724 5704 5710 5723 5737 5732 5730 5721 5702 5685 5675 5661 5662 5680 5672 5666 5660 5654 5647 5643 5638 5633 5625 5618 5612 5605 5599 5593 5586 5580 5574 5570 5567 5564 5562 5561 5560 5562 5565 5569 5573 5577 5582
5756 5722 5707 5697 5704 5718 5715 5716 5714 5698 5674 5667 5663 5659 5657 5656 5651 5646 5641 5635 5630 5625 5618 5611 5604 5598 5593 5587 5581 5575 5569 5564 5559 5555 5551 5548 5548 5548 5548 5549 5550 5553 5556 5560
5744 5719 5721 5721 5726 5721 5712 5709 5705 5692 5683 5667 5663 5654 5645 5645 5642 5637 5632 5626 5621 5615 5609 5602 5595 5588 5582 5577 5572 5567 5563 5558 5554 5550 5546 5544 5544 5544 5543 5543 5543 5543 5544 5547
5733 5718 5714 5710 5719 5714 5702 5699 5696 5688 5680 5670 5660 5648 5648 5644 5639 5632 5626 5621 5614 5607 5601 5595 5589 5582 5576 5571 5567 5563 5559 5555 5551 5547 5544 5543 5541 5540 5539 5539 5539 5539 5539 5540
5727 5715 5704 5696 5708 5706 5680 5684 5680 5674 5667 5657 5641 5638 5638 5632 5628 5621 5614 5608 5600 5596 5593 5588 5583 5577 5572 5567 5563 5558 5554 5551 5546 5543 5541 5538 5536 5534 5533 5533 5533 5532 5532 5534
5727 5712 5695 5689 5690 5676 5680 5693 5684 5669 5655 5652 5644 5637 5630 5623 5620 5615 5607 5601 5596 5591 5586 5581 5574 5569 5563 5558 5552 5548 5544 5540 5537 5534 5532 5530 5528 5527 5525 5524 5523 5523 5523 5525
5730 5713 5692 5678 5676 5676 5682 5684 5678 5664 5648 5645 5637 5631 5628 5623 5616 5609 5603 5595 5587 5582 5577 5570 5563 5556 5549 5542 5536 5531 5528 5524 5521 5519 5518 5518 5517 5516 5515 5514 5513 5513 5513 5516
5721 5708 5689 5678 5672 5664 5669 5680 5681 5666 5644 5642 5635 5626 5620 5611 5596 5596 5596 5588 5582 5576 5569 5561 5554 5545 5536 5529 5521 5515 5510 5506 5503 5502 5501 5501 5501 5502 5502 5503 5503 5503 5505 5507
5704 5692 5681 5673 5667 5665 5672 5676 5666 5637 5629 5635 5628 5618 5609 5598 5591 5592 5590 5584 5576 5569 5562 5554 5545 5535 5526 5518 5510 5502 5496 5491 5488 5485 5484 5484 5485 5486 5489 5490 5492 5493 5496 5499
5695 5682 5675 5665 5656 5655 5672 5664 5647 5635 5635 5629 5622 5615 5607 5600 5595 5590 5583 5577 5571 5564 5557 5549 5540 5530 5521 5512 5502 5495 5488 5483 5479 5475 5473 5472 5473 5474 5478 5479 5481 5483 5486 5490
5697 5689 5677 5669 5663 5667 5668 5659 5652 5641 5633 5628 5620 5615 5607 5599 5592 5584 5577 5571 5565 5559 5552 5545 5535 5528 5519 5509 5499 5491 5486 5480 5474 5469 5466 5465 5465 5466 5467 5469 5472 5476 5479 5483
5703 5701 5685 5674 5670 5667 5661 5657 5651 5645 5637 5631 5623 5614 5605 5595 5587 5579 5573 5567 5561 5556 5550 5542 5534 5527 5519 5510 5500 5491 5484 5477 5471 5466 5463 5461 5460 5460 5461 5463 5466 5469 5474 5478
5701 5695 5680 5673 5672 5667 5661 5656 5651 5644 5637 5629 5621 5612 5601 5592 5583 5575 5568 5563 5558 5554 5547 5540 5532 5525 5518 5510 5501 5493 5485 5477 5470 5465 5462 5460 5458 5457 5458 5459 5461 5466 5471 5476
5696 5686 5674 5665 5666 5659 5654 5655 5650 5641 5632 5624 5615 5607 5598 5588 5579 5572 5565 5561 5557 5553 5546 5539 5533 5525 5518 5511 5503 5496 5487 5479 5472 5467 5463 5460 5458 5457 5456 5457 5461 5465 5469 5474